Year,Month,Day,Hour,Minute,Value (Times are PST for windgust in km/hr)
2016,03,08,00,06,1.60
2016,03,08,00,07,1.60
2016,03,08,00,08,1.60
2016,03,08,00,09,3.20
2016,03,08,00,10,1.60
2016,03,08,00,11,1.60
2016,03,08,00,13,1.60
2016,03,08,00,21,1.60
2016,03,08,00,24,3.20
2016,03,08,00,25,1.60
2016,03,08,00,27,3.20
2016,03,08,00,28,1.60
2016,03,08,00,29,3.20
2016,03,08,00,30,11.30
2016,03,08,00,31,9.60
2016,03,08,00,32,1.60
2016,03,08,00,33,4.80
2016,03,08,00,34,1.60
2016,03,08,00,35,1.60
2016,03,08,00,36,1.60
2016,03,08,00,37,1.60
2016,03,08,00,40,1.60
2016,03,08,00,42,1.60
2016,03,08,00,43,1.60
2016,03,08,00,45,1.60
2016,03,08,00,46,3.20
2016,03,08,00,47,1.60
2016,03,08,00,48,1.60
2016,03,08,00,49,1.60
2016,03,08,00,50,1.60
2016,03,08,00,51,1.60
2016,03,08,01,03,1.60
2016,03,08,01,04,1.60
2016,03,08,01,05,1.60
2016,03,08,01,28,1.60
2016,03,08,01,29,3.20
2016,03,08,01,30,3.20
2016,03,08,01,31,1.60
2016,03,08,01,32,1.60
2016,03,08,01,34,1.60
2016,03,08,01,42,1.60
2016,03,08,01,43,1.60
2016,03,08,01,44,1.60
2016,03,08,01,45,1.60
2016,03,08,01,46,1.60
2016,03,08,01,47,1.60
2016,03,08,01,48,1.60
2016,03,08,01,49,3.20
2016,03,08,01,50,3.20
2016,03,08,01,51,3.20
2016,03,08,01,52,3.20
2016,03,08,01,53,3.20
2016,03,08,01,54,3.20
2016,03,08,01,55,3.20
2016,03,08,01,56,1.60
2016,03,08,02,01,1.60
2016,03,08,02,02,1.60
2016,03,08,02,03,1.60
2016,03,08,02,06,1.60
2016,03,08,02,07,1.60
2016,03,08,02,08,1.60
2016,03,08,02,09,1.60
2016,03,08,02,11,1.60
2016,03,08,02,12,1.60
2016,03,08,02,13,1.60
2016,03,08,02,17,1.60
2016,03,08,02,18,1.60
2016,03,08,02,33,4.80
2016,03,08,02,34,4.80
2016,03,08,02,35,8.10
2016,03,08,02,36,4.80
2016,03,08,02,37,1.60
2016,03,08,02,38,3.20
2016,03,08,02,39,4.80
2016,03,08,02,40,3.20
2016,03,08,02,41,3.20
2016,03,08,02,42,1.60
2016,03,08,02,43,4.80
2016,03,08,02,44,8.10
2016,03,08,02,45,3.20
2016,03,08,02,46,3.20
2016,03,08,02,47,4.80
2016,03,08,02,48,4.80
2016,03,08,02,49,1.60
2016,03,08,02,50,3.20
2016,03,08,02,51,3.20
2016,03,08,02,52,1.60
2016,03,08,02,56,1.60
2016,03,08,02,57,3.20
2016,03,08,02,58,4.80
2016,03,08,02,59,3.20
2016,03,08,03,00,3.20
2016,03,08,03,01,1.60
2016,03,08,03,03,1.60
2016,03,08,03,06,1.60
2016,03,08,03,07,1.60
2016,03,08,03,12,1.60
2016,03,08,03,18,1.60
2016,03,08,03,19,1.60
2016,03,08,03,20,1.60
2016,03,08,03,28,1.60
2016,03,08,03,29,3.20
2016,03,08,03,30,3.20
2016,03,08,03,31,1.60
2016,03,08,03,32,1.60
2016,03,08,03,39,1.60
2016,03,08,03,49,1.60
2016,03,08,03,50,3.20
2016,03,08,03,51,6.40
2016,03,08,03,52,4.80
2016,03,08,03,53,1.60
2016,03,08,03,54,1.60
2016,03,08,03,55,1.60
2016,03,08,03,56,1.60
2016,03,08,03,57,1.60
2016,03,08,03,58,1.60
2016,03,08,03,59,1.60
2016,03,08,04,00,3.20
2016,03,08,04,01,1.60
2016,03,08,04,02,1.60
2016,03,08,04,05,4.80
2016,03,08,04,06,4.80
2016,03,08,04,07,4.80
2016,03,08,04,08,3.20
2016,03,08,04,09,1.60
2016,03,08,04,11,4.80
2016,03,08,04,12,4.80
2016,03,08,04,13,3.20
2016,03,08,04,14,3.20
2016,03,08,04,15,3.20
2016,03,08,04,16,4.80
2016,03,08,04,17,4.80
2016,03,08,04,18,3.20
2016,03,08,04,19,3.20
2016,03,08,04,20,3.20
2016,03,08,04,21,3.20
2016,03,08,04,22,1.60
2016,03,08,04,36,1.60
2016,03,08,04,37,3.20
2016,03,08,04,38,3.20
2016,03,08,04,39,1.60
2016,03,08,04,42,1.60
2016,03,08,04,44,1.60
2016,03,08,04,45,3.20
2016,03,08,04,46,3.20
2016,03,08,04,47,1.60
2016,03,08,04,48,1.60
2016,03,08,04,49,1.60
2016,03,08,04,55,1.60
2016,03,08,04,56,3.20
2016,03,08,04,57,1.60
2016,03,08,04,58,1.60
2016,03,08,04,59,1.60
2016,03,08,05,01,1.60
2016,03,08,05,02,1.60
2016,03,08,05,07,3.20
2016,03,08,05,08,4.80
2016,03,08,05,09,3.20
2016,03,08,05,10,1.60
2016,03,08,05,11,1.60
2016,03,08,05,12,3.20
2016,03,08,05,13,3.20
2016,03,08,05,14,1.60
2016,03,08,05,15,3.20
2016,03,08,05,16,1.60
2016,03,08,05,18,4.80
2016,03,08,05,19,4.80
2016,03,08,05,20,4.80
2016,03,08,05,21,3.20
2016,03,08,05,22,4.80
2016,03,08,05,23,3.20
2016,03,08,05,24,3.20
2016,03,08,05,25,1.60
2016,03,08,05,26,1.60
2016,03,08,05,27,1.60
2016,03,08,05,41,1.60
2016,03,08,05,42,1.60
2016,03,08,05,45,1.60
2016,03,08,05,46,1.60
2016,03,08,05,49,1.60
2016,03,08,05,50,1.60
2016,03,08,05,51,1.60
2016,03,08,05,57,1.60
2016,03,08,05,58,1.60
2016,03,08,06,04,1.60
2016,03,08,06,05,1.60
2016,03,08,06,06,4.80
2016,03,08,06,07,3.20
2016,03,08,06,08,3.20
2016,03,08,06,09,4.80
2016,03,08,06,10,3.20
2016,03,08,06,11,3.20
2016,03,08,06,12,3.20
2016,03,08,06,13,3.20
2016,03,08,06,14,1.60
2016,03,08,06,18,1.60
2016,03,08,06,40,1.60
2016,03,08,06,41,1.60
2016,03,08,06,42,1.60
2016,03,08,06,44,1.60
2016,03,08,06,49,3.20
2016,03,08,06,50,3.20
2016,03,08,06,51,1.60
2016,03,08,06,52,1.60
2016,03,08,06,53,1.60
2016,03,08,06,54,1.60
2016,03,08,06,57,1.60
2016,03,08,06,58,1.60
2016,03,08,06,59,1.60
2016,03,08,07,00,1.60
2016,03,08,07,01,1.60
2016,03,08,07,02,1.60
2016,03,08,07,03,1.60
2016,03,08,07,16,1.60
2016,03,08,07,17,1.60
2016,03,08,07,18,1.60
2016,03,08,07,19,1.60
2016,03,08,07,20,1.60
2016,03,08,07,41,1.60
2016,03,08,07,42,1.60
2016,03,08,07,43,1.60
2016,03,08,07,44,1.60
2016,03,08,08,02,1.60
2016,03,08,08,03,1.60
2016,03,08,08,04,1.60
2016,03,08,08,05,1.60
2016,03,08,08,06,1.60
2016,03,08,08,07,1.60
2016,03,08,08,08,1.60
2016,03,08,08,09,1.60
2016,03,08,08,10,1.60
2016,03,08,08,17,3.20
2016,03,08,08,18,3.20
2016,03,08,08,19,3.20
2016,03,08,08,20,3.20
2016,03,08,08,21,3.20
2016,03,08,08,22,4.80
2016,03,08,08,23,4.80
2016,03,08,08,24,4.80
2016,03,08,08,25,4.80
2016,03,08,08,26,4.80
2016,03,08,08,27,4.80
2016,03,08,08,28,4.80
2016,03,08,08,29,3.20
2016,03,08,08,30,3.20
2016,03,08,08,31,1.60
2016,03,08,08,36,1.60
2016,03,08,08,37,1.60
2016,03,08,08,49,1.60
2016,03,08,08,51,1.60
2016,03,08,08,52,1.60
2016,03,08,09,00,3.20
2016,03,08,09,01,3.20
2016,03,08,09,02,3.20
2016,03,08,09,03,3.20
2016,03,08,09,04,3.20
2016,03,08,09,05,3.20
2016,03,08,09,06,4.80
2016,03,08,09,07,9.60
2016,03,08,09,08,9.60
2016,03,08,09,09,8.10
2016,03,08,09,10,8.10
2016,03,08,09,11,8.10
2016,03,08,09,12,9.60
2016,03,08,09,13,11.30
2016,03,08,09,14,9.60
2016,03,08,09,15,9.60
2016,03,08,09,16,9.60
2016,03,08,09,17,9.60
2016,03,08,09,18,11.30
2016,03,08,09,19,12.90
2016,03,08,09,20,11.30
2016,03,08,09,21,11.30
2016,03,08,09,22,9.60
2016,03,08,09,23,8.10
2016,03,08,09,24,8.10
2016,03,08,09,25,3.20
2016,03,08,09,26,6.40
2016,03,08,09,27,8.10
2016,03,08,09,28,6.40
2016,03,08,09,29,6.40
2016,03,08,09,30,6.40
2016,03,08,09,31,9.60
2016,03,08,09,32,8.10
2016,03,08,09,33,8.10
2016,03,08,09,34,4.80
2016,03,08,09,35,1.60
2016,03,08,09,36,1.60
2016,03,08,09,37,1.60
2016,03,08,09,38,1.60
2016,03,08,09,40,4.80
2016,03,08,09,41,4.80
2016,03,08,09,42,3.20
2016,03,08,09,43,1.60
2016,03,08,09,45,3.20
2016,03,08,09,46,1.60
2016,03,08,09,47,1.60
2016,03,08,09,48,8.10
2016,03,08,09,49,9.60
2016,03,08,09,50,11.30
2016,03,08,09,51,8.10
2016,03,08,09,52,14.50
2016,03,08,09,53,11.30
2016,03,08,09,54,6.40
2016,03,08,09,55,6.40
2016,03,08,09,56,6.40
2016,03,08,09,57,8.10
2016,03,08,09,58,8.10
2016,03,08,09,59,4.80
2016,03,08,10,00,6.40
2016,03,08,10,01,4.80
2016,03,08,10,02,3.20
2016,03,08,10,03,1.60
2016,03,08,10,04,1.60
2016,03,08,10,05,1.60
2016,03,08,10,07,1.60
2016,03,08,10,08,1.60
2016,03,08,10,10,1.60
2016,03,08,10,11,1.60
2016,03,08,10,14,1.60
2016,03,08,10,15,6.40
2016,03,08,10,16,6.40
2016,03,08,10,17,6.40
2016,03,08,10,18,4.80
2016,03,08,10,19,4.80
2016,03,08,10,20,3.20
2016,03,08,10,21,1.60
2016,03,08,10,24,3.20
2016,03,08,10,25,1.60
2016,03,08,10,28,1.60
2016,03,08,10,30,1.60
2016,03,08,10,32,1.60
2016,03,08,10,33,1.60
2016,03,08,10,34,1.60
2016,03,08,10,35,1.60
2016,03,08,10,36,3.20
2016,03,08,10,37,4.80
2016,03,08,10,38,4.80
2016,03,08,10,39,6.40
2016,03,08,10,40,4.80
2016,03,08,10,41,4.80
2016,03,08,10,44,8.10
2016,03,08,10,45,8.10
2016,03,08,10,46,8.10
2016,03,08,10,47,4.80
2016,03,08,10,48,4.80
2016,03,08,10,49,3.20
2016,03,08,10,50,4.80
2016,03,08,10,51,6.40
2016,03,08,10,52,4.80
2016,03,08,10,53,6.40
2016,03,08,10,54,4.80
2016,03,08,10,55,3.20
2016,03,08,10,56,1.60
2016,03,08,10,57,4.80
2016,03,08,10,58,4.80
2016,03,08,10,59,4.80
2016,03,08,11,00,3.20
2016,03,08,11,01,4.80
2016,03,08,11,02,3.20
2016,03,08,11,03,6.40
2016,03,08,11,04,8.10
2016,03,08,11,05,6.40
2016,03,08,11,06,4.80
2016,03,08,11,07,4.80
2016,03,08,11,08,3.20
2016,03,08,11,09,4.80
2016,03,08,11,10,4.80
2016,03,08,11,11,8.10
2016,03,08,11,12,6.40
2016,03,08,11,13,8.10
2016,03,08,11,14,6.40
2016,03,08,11,15,6.40
2016,03,08,11,16,3.20
2016,03,08,11,17,6.40
2016,03,08,11,18,6.40
2016,03,08,11,19,8.10
2016,03,08,11,20,8.10
2016,03,08,11,21,8.10
2016,03,08,11,22,4.80
2016,03,08,11,23,8.10
2016,03,08,11,24,9.60
2016,03,08,11,25,9.60
2016,03,08,11,26,6.40
2016,03,08,11,27,8.10
2016,03,08,11,28,4.80
2016,03,08,11,29,8.10
2016,03,08,11,30,4.80
2016,03,08,11,31,8.10
2016,03,08,11,32,4.80
2016,03,08,11,33,4.80
2016,03,08,11,34,4.80
2016,03,08,11,35,6.40
2016,03,08,11,36,4.80
2016,03,08,11,37,8.10
2016,03,08,11,38,6.40
2016,03,08,11,39,4.80
2016,03,08,11,40,4.80
2016,03,08,11,41,4.80
2016,03,08,11,42,4.80
2016,03,08,11,43,4.80
2016,03,08,11,44,4.80
2016,03,08,11,45,6.40
2016,03,08,11,46,6.40
2016,03,08,11,47,3.20
2016,03,08,11,48,4.80
2016,03,08,11,49,6.40
2016,03,08,11,50,6.40
2016,03,08,11,51,4.80
2016,03,08,11,52,4.80
2016,03,08,11,53,4.80
2016,03,08,11,54,1.60
2016,03,08,11,55,3.20
2016,03,08,11,56,1.60
2016,03,08,12,13,1.60
2016,03,08,12,14,3.20
2016,03,08,12,15,4.80
2016,03,08,12,16,3.20
2016,03,08,12,17,3.20
2016,03,08,12,18,3.20
2016,03,08,12,19,3.20
2016,03,08,12,20,4.80
2016,03,08,12,21,4.80
2016,03,08,12,22,4.80
2016,03,08,12,23,1.60
2016,03,08,12,24,1.60
2016,03,08,12,25,1.60
2016,03,08,12,26,3.20
2016,03,08,12,27,1.60
2016,03,08,12,28,3.20
2016,03,08,12,29,4.80
2016,03,08,12,30,3.20
2016,03,08,12,31,3.20
2016,03,08,12,32,1.60
2016,03,08,12,33,1.60
2016,03,08,12,34,1.60
2016,03,08,12,47,1.60
2016,03,08,13,05,1.60
2016,03,08,13,07,1.60
2016,03,08,13,10,1.60
2016,03,08,13,11,1.60
2016,03,08,13,12,1.60
2016,03,08,13,15,1.60
2016,03,08,13,16,1.60
2016,03,08,13,17,1.60
2016,03,08,13,18,1.60
2016,03,08,13,19,1.60
2016,03,08,13,20,1.60
2016,03,08,13,21,1.60
2016,03,08,13,23,1.60
2016,03,08,13,24,1.60
2016,03,08,13,25,1.60
2016,03,08,13,26,1.60
2016,03,08,13,27,1.60
2016,03,08,13,32,1.60
2016,03,08,13,33,1.60
2016,03,08,13,34,1.60
2016,03,08,13,35,1.60
2016,03,08,13,36,1.60
2016,03,08,13,39,1.60
2016,03,08,13,40,1.60
2016,03,08,13,41,1.60
2016,03,08,13,47,1.60
2016,03,08,13,50,1.60
2016,03,08,13,51,3.20
2016,03,08,13,52,3.20
2016,03,08,13,53,1.60
2016,03,08,13,57,1.60
2016,03,08,14,10,1.60
2016,03,08,14,42,1.60
2016,03,08,14,43,1.60
2016,03,08,14,44,1.60
2016,03,08,14,45,1.60
2016,03,08,14,49,1.60
2016,03,08,14,50,1.60
2016,03,08,14,55,1.60
2016,03,08,14,56,1.60
2016,03,08,14,57,1.60
2016,03,08,15,02,3.20
2016,03,08,15,03,4.80
2016,03,08,15,04,4.80
2016,03,08,15,05,4.80
2016,03,08,15,06,3.20
2016,03,08,15,09,1.60
2016,03,08,15,10,3.20
2016,03,08,15,11,3.20
2016,03,08,15,12,1.60
2016,03,08,15,13,3.20
2016,03,08,15,14,3.20
2016,03,08,15,15,4.80
2016,03,08,15,16,4.80
2016,03,08,15,17,4.80
2016,03,08,15,18,4.80
2016,03,08,15,19,4.80
2016,03,08,15,20,3.20
2016,03,08,15,21,4.80
2016,03,08,15,22,3.20
2016,03,08,15,23,1.60
2016,03,08,15,24,1.60
2016,03,08,15,25,1.60
2016,03,08,15,38,1.60
2016,03,08,15,39,1.60
2016,03,08,15,40,1.60
2016,03,08,15,41,3.20
2016,03,08,15,42,1.60
2016,03,08,15,43,1.60
2016,03,08,15,44,1.60
2016,03,08,15,55,1.60
2016,03,08,15,56,1.60
2016,03,08,15,57,3.20
2016,03,08,15,58,1.60
2016,03,08,15,59,1.60
2016,03,08,16,00,1.60
2016,03,08,16,01,1.60
2016,03,08,16,05,1.60
2016,03,08,16,07,1.60
2016,03,08,16,14,1.60
2016,03,08,16,15,1.60
2016,03,08,16,16,1.60
2016,03,08,16,17,3.20
2016,03,08,16,18,3.20
2016,03,08,16,19,3.20
2016,03,08,16,20,3.20
2016,03,08,16,21,4.80
2016,03,08,16,22,4.80
2016,03,08,16,23,6.40
2016,03,08,16,24,6.40
2016,03,08,16,25,8.10
2016,03,08,16,26,6.40
2016,03,08,16,27,4.80
2016,03,08,16,28,3.20
2016,03,08,16,29,3.20
2016,03,08,16,30,4.80
2016,03,08,16,31,3.20
2016,03,08,16,32,4.80
2016,03,08,16,33,3.20
2016,03,08,16,34,3.20
2016,03,08,16,35,3.20
2016,03,08,16,36,3.20
2016,03,08,16,37,3.20
2016,03,08,16,38,1.60
2016,03,08,16,40,1.60
2016,03,08,16,41,1.60
2016,03,08,16,42,3.20
2016,03,08,16,43,1.60
2016,03,08,16,44,3.20
2016,03,08,16,45,4.80
2016,03,08,16,46,4.80
2016,03,08,16,47,1.60
2016,03,08,16,49,3.20
2016,03,08,16,50,3.20
2016,03,08,16,51,4.80
2016,03,08,16,52,4.80
2016,03,08,16,53,3.20
2016,03,08,16,54,3.20
2016,03,08,16,55,3.20
2016,03,08,16,56,1.60
2016,03,08,16,57,1.60
2016,03,08,16,58,1.60
2016,03,08,17,00,1.60
2016,03,08,17,01,1.60
2016,03,08,17,02,3.20
2016,03,08,17,03,1.60
2016,03,08,17,04,1.60
2016,03,08,17,05,1.60
2016,03,08,17,06,1.60
2016,03,08,17,07,1.60
2016,03,08,17,16,1.60
2016,03,08,17,32,1.60
2016,03,08,17,34,1.60
2016,03,08,18,00,1.60
2016,03,08,18,01,1.60
2016,03,08,18,03,1.60
2016,03,08,18,20,1.60
2016,03,08,18,21,1.60
2016,03,08,18,22,1.60
2016,03,08,18,23,1.60
2016,03,08,18,32,1.60
2016,03,08,18,33,1.60
2016,03,08,18,34,1.60
2016,03,08,18,35,1.60
2016,03,08,18,36,1.60
2016,03,08,18,37,1.60
2016,03,08,18,38,1.60
2016,03,08,18,39,1.60
2016,03,08,18,45,1.60
2016,03,08,18,57,1.60
2016,03,08,18,58,3.20
2016,03,08,18,59,3.20
2016,03,08,19,00,3.20
2016,03,08,19,08,1.60
2016,03,08,19,09,1.60
2016,03,08,19,10,3.20
2016,03,08,19,11,4.80
2016,03,08,19,12,4.80
2016,03,08,19,13,3.20
2016,03,08,19,14,1.60
2016,03,08,19,15,3.20
2016,03,08,19,16,6.40
2016,03,08,19,17,3.20
2016,03,08,19,18,3.20
2016,03,08,19,19,3.20
2016,03,08,19,20,4.80
2016,03,08,19,21,4.80
2016,03,08,19,22,4.80
2016,03,08,19,23,3.20
2016,03,08,19,24,4.80
2016,03,08,19,25,3.20
2016,03,08,19,27,6.40
2016,03,08,19,28,6.40
2016,03,08,19,29,8.10
2016,03,08,19,30,6.40
2016,03,08,19,31,8.10
2016,03,08,19,32,6.40
2016,03,08,19,33,4.80
2016,03,08,19,34,4.80
2016,03,08,19,35,4.80
2016,03,08,19,36,3.20
2016,03,08,19,37,1.60
2016,03,08,19,44,1.60
2016,03,08,19,45,4.80
2016,03,08,19,46,3.20
2016,03,08,19,47,3.20
2016,03,08,19,48,3.20
2016,03,08,19,49,3.20
2016,03,08,19,50,3.20
2016,03,08,19,51,3.20
2016,03,08,19,52,3.20
2016,03,08,19,54,1.60
2016,03,08,19,55,3.20
2016,03,08,19,56,3.20
2016,03,08,19,57,1.60
2016,03,08,19,58,1.60
2016,03,08,20,00,1.60
2016,03,08,20,01,1.60
2016,03,08,20,17,1.60
2016,03,08,20,20,1.60
2016,03,08,20,21,1.60
2016,03,08,20,30,1.60
2016,03,08,20,31,1.60
2016,03,08,20,33,1.60
2016,03,08,20,34,1.60
2016,03,08,20,39,3.20
2016,03,08,20,40,4.80
2016,03,08,20,41,4.80
2016,03,08,20,42,1.60
2016,03,08,20,44,1.60
2016,03,08,20,45,3.20
2016,03,08,20,46,4.80
2016,03,08,20,47,3.20
2016,03,08,20,48,1.60
2016,03,08,20,49,1.60
2016,03,08,20,51,3.20
2016,03,08,20,52,4.80
2016,03,08,20,53,4.80
2016,03,08,20,54,6.40
2016,03,08,20,55,4.80
2016,03,08,20,56,3.20
2016,03,08,20,57,3.20
2016,03,08,20,58,3.20
2016,03,08,20,59,3.20
2016,03,08,21,00,3.20
2016,03,08,21,01,4.80
2016,03,08,21,02,6.40
2016,03,08,21,03,8.10
2016,03,08,21,04,8.10
2016,03,08,21,05,4.80
2016,03,08,21,06,3.20
2016,03,08,21,08,1.60
2016,03,08,21,12,3.20
2016,03,08,21,13,3.20
2016,03,08,21,14,4.80
2016,03,08,21,15,1.60
2016,03,08,21,16,3.20
2016,03,08,21,17,4.80
2016,03,08,21,18,4.80
2016,03,08,21,21,1.60
2016,03,08,21,22,1.60
2016,03,08,21,23,1.60
2016,03,08,21,24,3.20
2016,03,08,21,25,3.20
2016,03,08,21,26,4.80
2016,03,08,21,27,1.60
2016,03,08,21,28,1.60
2016,03,08,21,31,1.60
2016,03,08,21,32,1.60
2016,03,08,21,33,1.60
2016,03,08,21,34,3.20
2016,03,08,21,35,6.40
2016,03,08,21,36,8.10
2016,03,08,21,37,8.10
2016,03,08,21,38,8.10
2016,03,08,21,39,6.40
2016,03,08,21,40,6.40
2016,03,08,21,41,8.10
2016,03,08,21,42,6.40
2016,03,08,21,43,8.10
2016,03,08,21,44,6.40
2016,03,08,21,45,6.40
2016,03,08,21,46,4.80
2016,03,08,21,47,3.20
2016,03,08,21,48,4.80
2016,03,08,21,49,4.80
2016,03,08,21,50,8.10
2016,03,08,21,51,8.10
2016,03,08,21,52,6.40
2016,03,08,21,53,4.80
2016,03,08,21,54,4.80
2016,03,08,21,55,6.40
2016,03,08,21,56,8.10
2016,03,08,21,57,8.10
2016,03,08,21,58,6.40
2016,03,08,21,59,6.40
2016,03,08,22,00,6.40
2016,03,08,22,01,6.40
2016,03,08,22,02,4.80
2016,03,08,22,03,4.80
2016,03,08,22,04,8.10
2016,03,08,22,05,6.40
2016,03,08,22,06,6.40
2016,03,08,22,07,6.40
2016,03,08,22,08,6.40
2016,03,08,22,09,6.40
2016,03,08,22,10,4.80
2016,03,08,22,11,3.20
2016,03,08,22,15,1.60
2016,03,08,22,16,3.20
2016,03,08,22,17,1.60
2016,03,08,22,18,1.60
2016,03,08,22,19,1.60
2016,03,08,22,23,1.60
2016,03,08,22,24,3.20
2016,03,08,22,25,6.40
2016,03,08,22,26,6.40
2016,03,08,22,27,8.10
2016,03,08,22,28,6.40
2016,03,08,22,29,8.10
2016,03,08,22,30,6.40
2016,03,08,22,31,4.80
2016,03,08,22,32,6.40
2016,03,08,22,33,6.40
2016,03,08,22,34,6.40
2016,03,08,22,35,6.40
2016,03,08,22,36,6.40
2016,03,08,22,37,3.20
2016,03,08,22,38,6.40
2016,03,08,22,39,4.80
2016,03,08,22,40,4.80
2016,03,08,22,41,4.80
2016,03,08,22,42,3.20
2016,03,08,22,43,3.20
2016,03,08,22,44,3.20
2016,03,08,22,45,1.60
2016,03,08,22,46,1.60
2016,03,08,22,50,3.20
2016,03,08,22,51,3.20
2016,03,08,22,52,1.60
2016,03,08,22,53,3.20
2016,03,08,22,54,1.60
2016,03,08,22,56,1.60
2016,03,08,22,57,4.80
2016,03,08,22,58,4.80
2016,03,08,22,59,4.80
2016,03,08,23,00,4.80
2016,03,08,23,01,4.80
2016,03,08,23,02,6.40
2016,03,08,23,03,6.40
2016,03,08,23,04,4.80
2016,03,08,23,05,4.80
2016,03,08,23,06,4.80
2016,03,08,23,07,4.80
2016,03,08,23,08,1.60
2016,03,08,23,09,3.20
2016,03,08,23,13,1.60
2016,03,08,23,14,1.60
2016,03,08,23,17,1.60
2016,03,08,23,18,1.60
2016,03,08,23,26,1.60
2016,03,08,23,28,1.60
2016,03,08,23,29,3.20
2016,03,08,23,30,3.20
2016,03,08,23,31,3.20
2016,03,08,23,32,4.80
2016,03,08,23,33,4.80
2016,03,08,23,34,3.20
2016,03,08,23,35,3.20
2016,03,08,23,36,3.20
2016,03,08,23,37,1.60
2016,03,08,23,44,1.60
2016,03,08,23,45,1.60
2016,03,08,23,47,1.60
2016,03,08,23,48,1.60
2016,03,08,23,49,1.60
2016,03,08,23,50,1.60
2016,03,08,23,51,1.60
2016,03,08,23,52,1.60
